When you browse on this site, cookies collect data to enhance your experience and personalize the content and advertising you see.
Visit our Privacy Policy to learn more. By continuing to use the site, you agree to this use of cookies and data.
  • în România
  • Lista ţărilor
  • Pe 7 zile
  • Temperatura apei
  • Hartă satelitară
  • Meteo pe hartă
  • Widget-uri
  • user-avatar
    Intrare

    Meteo pe oră la Shahabad

    Astăzi, 19 Februarie, Marţi

    Timp Temperatura Precipitaţii Vânt Presiune Umiditate
    00:00 +13°C° 0.2 mm 2 m/s 733 mmHg 82%
    01:00 +13°C° 0.2 mm 1 m/s 733 mmHg 84%
    02:00 +12°C° 0.2 mm 1 m/s 734 mmHg 87%
    03:00 +12°C° 0.2 mm 1 m/s 734 mmHg 88%
    04:00 +12°C° 0.2 mm 1 m/s 734 mmHg 89%
    05:00 +11°C° 0 mm 3 m/s 734 mmHg 93%
    06:00 +12°C° 0.1 mm 2 m/s 735 mmHg 90%
    07:00 +13°C° 0.1 mm 2 m/s 735 mmHg 87%
    08:00 +14°C° 0.1 mm 1 m/s 736 mmHg 84%
    09:00 +16°C° 0 mm 2 m/s 737 mmHg 78%
    10:00 +18°C° 0 mm 2 m/s 738 mmHg 72%
    11:00 +21°C° 0 mm 3 m/s 738 mmHg 65%
    12:00 +21°C° 0.1 mm 3 m/s 738 mmHg 64%
    13:00 +22°C° 0.1 mm 3 m/s 738 mmHg 64%
    14:00 +22°C° 0.1 mm 4 m/s 738 mmHg 63%
    15:00 +22°C° 0 mm 3 m/s 738 mmHg 66%
    16:00 +21°C° 0 mm 2 m/s 738 mmHg 70%
    17:00 +21°C° 0 mm 1 m/s 738 mmHg 73%
    18:00 +19°C° 0 mm 2 m/s 738 mmHg 73%
    19:00 +18°C° 0 mm 2 m/s 739 mmHg 73%
    20:00 +17°C° 0 mm 2 m/s 739 mmHg 72%
    21:00 +16°C° 0 mm 2 m/s 739 mmHg 70%
    22:00 +16°C° 0 mm 2 m/s 740 mmHg 68%
    23:00 +16°C° 0 mm 2 m/s 740 mmHg 66%

    Mâine, 20 Februarie, Miercuri

    Timp Temperatura Precipitaţii Vânt Presiune Umiditate
    00:00 +16°C° 0 mm 2 m/s 740 mmHg 64%
    01:00 +16°C° 0 mm 2 m/s 740 mmHg 63%
    02:00 +17°C° 0 mm 2 m/s 740 mmHg 61%
    03:00 +16°C° 0.1 mm 2 m/s 739 mmHg 64%
    04:00 +15°C° 0.1 mm 2 m/s 739 mmHg 67%
    05:00 +15°C° 0.1 mm 1 m/s 739 mmHg 70%
    06:00 +15°C° 0.1 mm 1 m/s 740 mmHg 71%
    07:00 +15°C° 0.1 mm 1 m/s 740 mmHg 72%
    08:00 +16°C° 0.1 mm 2 m/s 740 mmHg 73%
    09:00 +17°C° 0 mm 2 m/s 741 mmHg 70%
    10:00 +19°C° 0 mm 2 m/s 741 mmHg 66%
    11:00 +20°C° 0 mm 3 m/s 741 mmHg 62%
    12:00 +21°C° 0 mm 3 m/s 741 mmHg 61%
    13:00 +22°C° 0 mm 4 m/s 741 mmHg 60%
    14:00 +22°C° 0 mm 4 m/s 740 mmHg 58%
    15:00 +21°C° 0.2 mm 3 m/s 740 mmHg 68%
    16:00 +20°C° 0.2 mm 3 m/s 740 mmHg 77%
    17:00 +18°C° 0.2 mm 2 m/s 740 mmHg 86%
    18:00 +18°C° 0.1 mm 3 m/s 741 mmHg 86%
    19:00 +17°C° 0.1 mm 3 m/s 741 mmHg 86%
    20:00 +15°C° 0.1 mm 4 m/s 742 mmHg 86%
    21:00 +16°C° 0 mm 5 m/s 741 mmHg 80%
    22:00 +16°C° 0 mm 6 m/s 741 mmHg 74%
    23:00 +16°C° 0 mm 7 m/s 740 mmHg 67%

    Poimâine, 21 Februarie, Joi

    Timp Temperatura Precipitaţii Vânt Presiune Umiditate
    00:00 +17°C° 0 mm 7 m/s 740 mmHg 57%
    01:00 +18°C° 0 mm 7 m/s 740 mmHg 48%
    02:00 +19°C° 0 mm 6 m/s 739 mmHg 38%
    03:00 +19°C° 0 mm 6 m/s 739 mmHg 41%
    04:00 +17°C° 0 mm 5 m/s 739 mmHg 44%
    05:00 +16°C° 0 mm 5 m/s 739 mmHg 48%
    06:00 +16°C° 0 mm 5 m/s 739 mmHg 54%
    07:00 +16°C° 0 mm 5 m/s 740 mmHg 60%
    08:00 +17°C° 0 mm 5 m/s 741 mmHg 66%
    09:00 +17°C° 0.1 mm 6 m/s 741 mmHg 68%
    10:00 +19°C° 0.1 mm 6 m/s 741 mmHg 71%
    11:00 +20°C° 0.1 mm 7 m/s 741 mmHg 73%
    12:00 +21°C° 0 mm 7 m/s 741 mmHg 68%
    13:00 +23°C° 0 mm 7 m/s 740 mmHg 62%
    14:00 +24°C° 0 mm 7 m/s 739 mmHg 57%
    15:00 +23°C° 0 mm 6 m/s 739 mmHg 61%
    16:00 +22°C° 0 mm 4 m/s 739 mmHg 65%
    17:00 +21°C° 0 mm 3 m/s 738 mmHg 70%
    18:00 +20°C° 0 mm 3 m/s 739 mmHg 68%
    19:00 +20°C° 0 mm 3 m/s 739 mmHg 66%
    20:00 +19°C° 0 mm 2 m/s 739 mmHg 64%
    21:00 +18°C° 0.1 mm 2 m/s 739 mmHg 67%
    22:00 +17°C° 0.1 mm 2 m/s 740 mmHg 70%
    23:00 +18°C° 0.1 mm 1 m/s 740 mmHg 72%

    22 Februarie, Vineri

    Timp Temperatura Precipitaţii Vânt Presiune Umiditate
    00:00 +16°C° 0.1 mm 1 m/s 739 mmHg 74%
    01:00 +16°C° 0.1 mm 1 m/s 739 mmHg 76%
    02:00 +16°C° 0.1 mm 1 m/s 739 mmHg 77%
    03:00 +16°C° 0.2 mm 1 m/s 739 mmHg 79%
    04:00 +16°C° 0.2 mm 1 m/s 739 mmHg 81%
    05:00 +16°C° 0.2 mm 1 m/s 739 mmHg 83%
    06:00 +18°C° 0.1 mm 1 m/s 739 mmHg 81%
    07:00 +16°C° 0.1 mm 0 m/s 740 mmHg 79%
    08:00 +17°C° 0.1 mm 0 m/s 740 mmHg 78%
    09:00 +18°C° 0 mm 0 m/s 740 mmHg 71%
    10:00 +22°C° 0 mm 1 m/s 740 mmHg 65%
    11:00 +24°C° 0 mm 1 m/s 741 mmHg 58%
    12:00 +24°C° 0 mm 1 m/s 740 mmHg 57%
    13:00 +25°C° 0 mm 1 m/s 739 mmHg 56%
    14:00 +26°C° 0 mm 2 m/s 739 mmHg 55%
    15:00 +24°C° 0.2 mm 2 m/s 738 mmHg 63%
    16:00 +23°C° 0.2 mm 2 m/s 738 mmHg 71%
    17:00 +21°C° 0.2 mm 3 m/s 738 mmHg 79%
    18:00 +19°C° 0 mm 3 m/s 738 mmHg 82%
    19:00 +18°C° 0 mm 2 m/s 739 mmHg 84%
    20:00 +16°C° 0 mm 2 m/s 739 mmHg 86%
    21:00 +16°C° 0 mm 2 m/s 739 mmHg 87%
    22:00 +15°C° 0 mm 2 m/s 740 mmHg 88%
    23:00 +15°C° 0 mm 2 m/s 740 mmHg 89%

    23 Februarie, Sâmbătă

    Timp Temperatura Precipitaţii Vânt Presiune Umiditate
    00:00 +15°C° 0 mm 2 m/s 739 mmHg 90%
    01:00 +14°C° 0 mm 2 m/s 739 mmHg 91%
    02:00 +13°C° 0 mm 3 m/s 739 mmHg 93%
    03:00 +13°C° 0 mm 3 m/s 738 mmHg 93%
    04:00 +13°C° 0 mm 2 m/s 738 mmHg 93%
    05:00 +13°C° 0 mm 2 m/s 738 mmHg 93%
    06:00 +13°C° 0 mm 2 m/s 738 mmHg 91%
    07:00 +14°C° 0 mm 2 m/s 738 mmHg 89%
    08:00 +15°C° 0 mm 2 m/s 738 mmHg 86%
    09:00 +17°C° 0 mm 2 m/s 739 mmHg 79%
    10:00 +19°C° 0 mm 2 m/s 739 mmHg 72%
    11:00 +21°C° 0 mm 2 m/s 739 mmHg 65%
    12:00 +21°C° 0 mm 2 m/s 738 mmHg 62%
    13:00 +23°C° 0 mm 2 m/s 738 mmHg 59%
    14:00 +24°C° 0 mm 2 m/s 737 mmHg 56%
    15:00 +23°C° 0 mm 2 m/s 737 mmHg 62%
    16:00 +21°C° 0 mm 3 m/s 737 mmHg 67%
    17:00 +20°C° 0 mm 3 m/s 736 mmHg 73%
    18:00 +18°C° 0 mm 3 m/s 737 mmHg 74%
    19:00 +17°C° 0 mm 3 m/s 737 mmHg 76%
    20:00 +14°C° 0 mm 3 m/s 738 mmHg 78%
    21:00 +14°C° 0 mm 2 m/s 737 mmHg 79%
    22:00 +14°C° 0 mm 2 m/s 737 mmHg 80%
    23:00 +13°C° 0 mm 2 m/s 737 mmHg 81%

    24 Februarie, Duminică

    Timp Temperatura Precipitaţii Vânt Presiune Umiditate
    00:00 +13°C° 0 mm 2 m/s 737 mmHg 83%
    01:00 +13°C° 0 mm 2 m/s 737 mmHg 86%
    02:00 +12°C° 0 mm 2 m/s 736 mmHg 88%
    03:00 +12°C° 0 mm 2 m/s 736 mmHg 89%
    04:00 +12°C° 0 mm 2 m/s 736 mmHg 90%
    05:00 +12°C° 0 mm 2 m/s 736 mmHg 92%
    06:00 +12°C° 0 mm 2 m/s 736 mmHg 89%
    07:00 +13°C° 0 mm 2 m/s 736 mmHg 87%
    08:00 +14°C° 0 mm 2 m/s 737 mmHg 85%
    09:00 +16°C° 0 mm 2 m/s 737 mmHg 78%
    10:00 +18°C° 0 mm 2 m/s 737 mmHg 71%
    11:00 +20°C° 0 mm 2 m/s 737 mmHg 64%
    12:00 +20°C° 0 mm 3 m/s 736 mmHg 61%
    13:00 +21°C° 0 mm 3 m/s 736 mmHg 58%
    14:00 +21°C° 0 mm 3 m/s 735 mmHg 55%
    15:00 +21°C° 0 mm 3 m/s 735 mmHg 60%
    16:00 +20°C° 0 mm 3 m/s 735 mmHg 66%
    17:00 +19°C° 0 mm 3 m/s 735 mmHg 71%
    18:00 +17°C° 0 mm 3 m/s 735 mmHg 74%
    19:00 +16°C° 0 mm 3 m/s 735 mmHg 77%
    20:00 +13°C° 0 mm 3 m/s 736 mmHg 81%
    21:00 +14°C° 0 mm 2 m/s 736 mmHg 81%
    22:00 +13°C° 0 mm 2 m/s 736 mmHg 81%
    23:00 +12°C° 0 mm 2 m/s 736 mmHg 81%
    Arată mai mult